Home   Weather   Bardufoss   Past weeks

Flag for Norway Past Weather in Bardufoss, Norway — Yesterday and Last 2 Weeks

Now
25 °F

Snow. Ice fog.


Feels Like: 25 °F
Forecast: 5 / 26 °F
Wind: No wind

Location: Bardufoss

Current Time: Jan 22, 2017 at 5:23:43 pm

Latest Report: Jan 22, 2017 at 4:50 pm


Visibility: 1 mi

Pressure: 29.62 "Hg

Humidity: 93%

Dew Point: 23 °F

Location of BardufossLocation

Past Weather in Bardufoss — Graph

°F

Bardufoss Temperature Yesterday

Maximum temperature yesterday: 30 °F (at 5:20 pm)
Minimum temperature yesterday: 16 °F (at 3:50 am)
Average temperature yesterday: 25 °F

High & Low Weather Summary for the Past Weeks

 TemperatureHumidityPressure
High43 °F (Jan 8, 9:50 am)100% (Jan 8, 6:20 pm)30.09 "Hg (Jan 8, 6:20 pm)
Low-9 °F (Jan 15, 7:50 am)59% (Jan 19, 2:20 pm)28.77 "Hg (Jan 12, 4:50 am)
Average21 °F87%29.45 "Hg
* Reported Jan 7 4:20 pm — Jan 22 4:20 pm, Bardufoss, Weather by CustomWeather, © 2017

Note: Actual official high and low records may vary slightly from our data, if they occured in-between our weather recording intervals... More about our weather records

Advertising

Bardufoss Weather History for the Previous 24 Hours

Scroll right to see more
 ConditionsComfort  
Time TempWeatherWind HumidityBarometerVisibility
4:20 pm
Sun, Jan 22
25 °FLight snow. Ice fog.No wind93%29.62 "Hg1 mi
3:50 pm23 °FLight snow. Ice fog.No wind100%29.65 "Hg2 mi
3:20 pm23 °FLight snow. Ice fog.No wind100%29.65 "Hg2 mi
2:50 pm23 °FLight snow. Ice fog.1 mph93%29.68 "Hg1 mi
2:20 pm23 °FSnow. Ice fog.No wind93%29.68 "Hg1 mi
1:50 pm23 °FLight snow. Ice fog.No wind93%29.71 "Hg2 mi
1:20 pm21 °FLight snow. Ice fog.1 mph100%29.71 "Hg4 mi
12:50 pm21 °FLight snow. Partly sunny.2 mph100%29.74 "Hg4 mi
12:20 pm21 °FLight snow. Ice fog.1 mph100%29.74 "Hg4 mi
11:50 am21 °FLight snow. Broken clouds.No wind93%29.74 "HgN/A
11:20 am19 °FLight mixture of precip. Broken clouds.No wind93%29.77 "HgN/A
10:50 am19 °FLight mixture of precip. Partly sunny.No wind100%29.77 "HgN/A
10:20 am19 °FPartly sunny.2 mph100%29.80 "HgN/A
9:50 am19 °FPassing clouds.1 mph93%29.80 "HgN/A
9:20 am19 °FPassing clouds.1 mph93%29.80 "HgN/A
8:50 am19 °FOvercast.No wind93%29.80 "HgN/A
8:20 am18 °FOvercast.1 mph100%29.83 "HgN/A
7:50 am18 °FOvercast.No wind93%29.83 "HgN/A
7:20 am18 °FOvercast.No wind93%29.83 "HgN/A
6:50 am18 °FOvercast.2 mph93%29.86 "HgN/A
6:20 am16 °FPassing clouds.2 mph100%29.86 "HgN/A
5:50 am19 °FCold.1 mph93%29.86 "HgN/A
5:20 am19 °FCold.2 mph100%29.86 "HgN/A
4:50 am19 °FPassing clouds.1 mph100%29.86 "HgN/A
4:20 am21 °FMostly cloudy.2 mph93%29.86 "HgN/A
3:50 am23 °FPassing clouds.2 mph93%29.89 "HgN/A
3:20 am25 °FPassing clouds.2 mph93%29.89 "HgN/A
2:50 am23 °FPassing clouds.2 mph93%29.89 "HgN/A
2:20 am27 °FOvercast.7 mph93%29.89 "HgN/A
1:50 am25 °FMostly cloudy.1 mph93%29.89 "HgN/A
1:20 am27 °FPartly cloudy.5 mph93%29.89 "HgN/A
12:50 am23 °FPartly cloudy.3 mph93%29.92 "HgN/A
12:20 am27 °FPassing clouds.3 mph93%29.92 "HgN/A
11:50 pm
Sat, Jan 21
27 °FLight snow. Ice fog.5 mph93%29.92 "Hg1 mi
11:20 pm27 °FLight snow. Overcast.No wind86%29.92 "Hg1 mi
10:50 pm27 °FPassing clouds.2 mph80%29.92 "HgN/A
10:20 pm25 °FOvercast.5 mph93%29.92 "HgN/A
9:50 pm25 °FMostly cloudy.2 mph93%29.92 "HgN/A
9:20 pm25 °FOvercast.3 mph93%29.92 "HgN/A
8:50 pm25 °FMostly cloudy.5 mph93%29.92 "HgN/A
8:20 pm27 °FLight snow. Ice fog.8 mph93%29.92 "Hg2 mi
7:50 pm27 °FLight snow. Passing clouds.9 mph86%29.92 "HgN/A
7:20 pm27 °FLight snow. Partly cloudy.7 mph80%29.92 "HgN/A
6:50 pm28 °FMostly cloudy.6 mph74%29.95 "HgN/A
6:20 pm28 °FOvercast.10 mph80%29.95 "HgN/A
5:50 pm27 °FLight snow. Low clouds.5 mph86%29.95 "HgN/A
5:20 pm30 °FLight snow. Low clouds.9 mph69%29.95 "HgN/A
Weather by CustomWeather, © 2017

See weather overviewHow to use our weather pages